,,Stat6,,Stat2,,Stat8,,Stat9,,Stat10,,Wind1,,Wind1,
time,status,PA1M_AVG,status,PR1M_SUM,status,RH1M_AVG,status,SR1M_AVG,status,TA1M_AVG,status,W1dAve1m,status,W1sAve1m,
2004-02-15, 00:00:00,VALID,918.109,VALID,0,VALID,88.7008,VALID,0,VALID,20.2477,VALID,136,VALID,1.58249,
2004-02-15, 00:01:00,VALID,918.114,VALID,0,VALID,88.5469,VALID,0,VALID,20.28,VALID,134,VALID,2.21429,
2004-02-15, 00:02:00,VALID,918.116,VALID,0,VALID,88.4223,VALID,-0.0169808,VALID,20.2924,VALID,144,VALID,1.91406,
2004-02-15, 00:03:00,VALID,918.107,VALID,0,VALID,88.3015,VALID,0,VALID,20.3183,VALID,144,VALID,2.11337,
2004-02-15, 00:04:00,VALID,918.126,VALID,0,VALID,88.3079,VALID,0,VALID,20.3282,VALID,128,VALID,2.08718,
2004-02-15, 00:05:00,VALID,918.117,VALID,0,VALID,88.084,VALID,0,VALID,20.3387,VALID,134,VALID,1.70458,
2004-02-15, 00:06:00,VALID,918.124,VALID,0,VALID,87.7763,VALID,0,VALID,20.3506,VALID,134,VALID,1.65941,
2004-02-15, 00:07:00,VALID,918.113,VALID,0,VALID,87.7331,VALID,-0.0169808,VALID,20.3796,VALID,142,VALID,2.19389,
2004-02-15, 00:08:00,VALID,918.107,VALID,0,VALID,87.6809,VALID,0.0339617,VALID,20.4052,VALID,142,VALID,1.45685,
2004-02-15, 00:09:00,VALID,918.101,VALID,0,VALID,87.742,VALID,0,VALID,20.4286,VALID,145,VALID,2.03652,
2004-02-15, 00:10:00,VALID,918.087,VALID,0,VALID,87.8246,VALID,-0.0169808,VALID,20.4321,VALID,141,VALID,2.01529,
2004-02-15, 00:11:00,VALID,918.081,VALID,0,VALID,87.9404,VALID,0,VALID,20.4125,VALID,136,VALID,1.74301,
2004-02-15, 00:12:00,VALID,918.07,VALID,0,VALID,87.9988,VALID,-0.0169808,VALID,20.3958,VALID,141,VALID,1.48586,
2004-02-15, 00:13:00,VALID,918.095,VALID,0,VALID,88.1336,VALID,0,VALID,20.3831,VALID,131,VALID,1.70274,
2004-02-15, 00:14:00,VALID,918.081,VALID,0,VALID,88.0891,VALID,0,VALID,20.3541,VALID,134,VALID,1.83108,
2004-02-15, 00:15:00,VALID,918.073,VALID,0,VALID,88.009,VALID,0,VALID,20.357,VALID,139,VALID,2.59756,
2004-02-15, 00:16:00,VALID,918.067,VALID,0,VALID,88.0612,VALID,0,VALID,20.3799,VALID,139,VALID,1.76944,
2004-02-15, 00:17:00,VALID,918.051,VALID,0,VALID,88.1731,VALID,0,VALID,20.3667,VALID,135,VALID,1.73021,
2004-02-15, 00:18:00,VALID,918.035,VALID,0,VALID,88.3066,VALID,0.0169808,VALID,20.3508,VALID,130,VALID,1.55228,
2004-02-15, 00:19:00,VALID,918.008,VALID,0,VALID,88.4515,VALID,0,VALID,20.3183,VALID,131,VALID,1.2818,
2004-02-15, 00:20:00,VALID,918.021,VALID,0,VALID,88.6079,VALID,0,VALID,20.2798,VALID,167,VALID,0.854469,
2004-02-15, 00:21:00,VALID,917.991,VALID,0,VALID,88.6779,VALID,0,VALID,20.2405,VALID,121,VALID,1.73402,
2004-02-15, 00:22:00,VALID,918.002,VALID,0,VALID,88.7758,VALID,0,VALID,20.2015,VALID,110,VALID,1.16206,
2004-02-15, 00:23:00,VALID,917.998,VALID,0,VALID,88.7631,VALID,0,VALID,20.1963,VALID,136,VALID,1.86392,
2004-02-15, 00:24:00,VALID,918.013,VALID,0,VALID,88.7275,VALID,-0.0169808,VALID,20.209,VALID,125,VALID,1.53296,
2004-02-15, 00:25:00,VALID,917.995,VALID,0,VALID,88.7173,VALID,-0.0339617,VALID,20.2087,VALID,131,VALID,2.08574,
2004-02-15, 00:26:00,VALID,917.997,VALID,0,VALID,88.6334,VALID,-0.0169808,VALID,20.2189,VALID,137,VALID,2.35973,
2004-02-15, 00:27:00,VALID,917.981,VALID,0,VALID,88.3485,VALID,-0.0339617,VALID,20.2512,VALID,142,VALID,2.44643,
2004-02-15, 00:28:00,VALID,917.957,VALID,0,VALID,88.3104,VALID,-0.0339617,VALID,20.2835,VALID,138,VALID,1.76472,
2004-02-15, 00:29:00,VALID,917.946,VALID,0,VALID,88.435,VALID,-0.0339617,VALID,20.28,VALID,134,VALID,1.76772,
2004-02-15, 00:30:00,VALID,917.93,VALID,0,VALID,88.5469,VALID,-0.0339617,VALID,20.2666,VALID,132,VALID,2.24981,
2004-02-15, 00:31:00,VALID,917.942,VALID,0,VALID,88.6258,VALID,0.0169808,VALID,20.2505,VALID,139,VALID,1.49888,
2004-02-15, 00:32:00,VALID,917.94,VALID,0,VALID,88.7911,VALID,-0.0169808,VALID,20.2244,VALID,139,VALID,1.8508,
2004-02-15, 00:33:00,VALID,917.931,VALID,0,VALID,88.8801,VALID,-0.0679233,VALID,20.2189,VALID,143,VALID,1.97809,
2004-02-15, 00:34:00,VALID,917.922,VALID,0,VALID,88.9246,VALID,-0.0339617,VALID,20.2055,VALID,134,VALID,1.36133,
2004-02-15, 00:35:00,VALID,917.923,VALID,0,VALID,89.0403,VALID,-0.0169808,VALID,20.1958,VALID,131,VALID,1.8363,
2004-02-15, 00:36:00,VALID,917.924,VALID,0,VALID,89.1865,VALID,0,VALID,20.1603,VALID,132,VALID,1.70488,
2004-02-15, 00:37:00,VALID,917.923,VALID,0,VALID,89.3175,VALID,0,VALID,20.1509,VALID,130,VALID,1.32599,
2004-02-15, 00:38:00,VALID,917.906,VALID,0,VALID,89.5108,VALID,0,VALID,20.1049,VALID,114,VALID,1.37415,
2004-02-15, 00:39:00,VALID,917.886,VALID,0,VALID,89.5413,VALID,-0.0169808,VALID,20.0823,VALID,106,VALID,1.50223,
2004-02-15, 00:40:00,VALID,917.896,VALID,0,VALID,89.6519,VALID,-0.0169808,VALID,20.0927,VALID,108,VALID,1.13844,
2004-02-15, 00:41:00,VALID,917.892,VALID,0,VALID,89.835,VALID,-0.0169808,VALID,20.0505,VALID,128,VALID,1.45276,
2004-02-15, 00:42:00,VALID,917.865,VALID,0,VALID,89.9279,VALID,0,VALID,20.0378,VALID,131,VALID,1.48528,
2004-02-15, 00:43:00,VALID,917.85,VALID,0,VALID,89.835,VALID,-0.0169808,VALID,20.0475,VALID,128,VALID,1.65755,
2004-02-15, 00:44:00,VALID,917.84,VALID,0,VALID,89.7816,VALID,0,VALID,20.0664,VALID,118,VALID,1.40663,
2004-02-15, 00:45:00,VALID,917.823,VALID,0,VALID,89.9915,VALID,-0.0339617,VALID,20.0535,VALID,109,VALID,1.4819,
2004-02-15, 00:46:00,VALID,917.807,VALID,0,VALID,90.1377,VALID,0,VALID,20.0271,VALID,105,VALID,1.60379,
2004-02-15, 00:47:00,VALID,917.804,VALID,0,VALID,90.3335,VALID,0,VALID,20.015,VALID,83,VALID,1.30632,
2004-02-15, 00:48:00,VALID,917.779,VALID,0,VALID,90.331,VALID,-0.0169808,VALID,20.0053,VALID,110,VALID,0.851563,
2004-02-15, 00:49:00,VALID,917.767,VALID,0,VALID,90.3233,VALID,0,VALID,20.0182,VALID,118,VALID,0.957919,
2004-02-15, 00:50:00,VALID,917.763,VALID,0,VALID,90.3958,VALID,-0.0169808,VALID,20.0048,VALID,82,VALID,1.0815,
2004-02-15, 00:51:00,VALID,917.775,VALID,0,VALID,90.495,VALID,0,VALID,19.9886,VALID,81,VALID,0.941311,
2004-02-15, 00:52:00,VALID,917.783,VALID,0,VALID,90.4937,VALID,0,VALID,19.9891,VALID,118,VALID,0.915179,
2004-02-15, 00:53:00,VALID,917.779,VALID,0,VALID,90.5777,VALID,0,VALID,19.9822,VALID,125,VALID,0.908594,
2004-02-15, 00:54:00,VALID,917.785,VALID,0,VALID,90.6908,VALID,-0.0169808,VALID,19.9829,VALID,129,VALID,1.28854,
2004-02-15, 00:55:00,VALID,917.765,VALID,0,VALID,90.7849,VALID,0.0169808,VALID,19.9635,VALID,124,VALID,1.39729,
2004-02-15, 00:56:00,VALID,917.746,VALID,0,VALID,90.5967,VALID,0,VALID,19.9439,VALID,131,VALID,1.63477,
2004-02-15, 00:57:00,VALID,917.726,VALID,0,VALID,90.3691,VALID,-0.0169808,VALID,19.9665,VALID,138,VALID,1.18466,
2004-02-15, 00:58:00,VALID,917.693,VALID,0,VALID,90.289,VALID,0,VALID,19.9859,VALID,134,VALID,1.69036,
2004-02-15, 00:59:00,VALID,917.67,VALID,0,VALID,90.1301,VALID,0,VALID,20.0179,VALID,105,VALID,1.86421,
2004-02-15, 01:00:00,VALID,917.639,VALID,0,VALID,90.331,VALID,-0.0339617,VALID,20.0378,VALID,100,VALID,1.39898,
2004-02-15, 01:01:00,VALID,917.615,VALID,0,VALID,90.3373,VALID,0,VALID,20.0117,VALID,136,VALID,1.64219,
2004-02-15, 01:02:00,VALID,917.6,VALID,0,VALID,90.2839,VALID,0,VALID,20.0351,VALID,119,VALID,1.2399,
2004-02-15, 01:03:00,VALID,917.583,VALID,0,VALID,90.3284,VALID,0,VALID,20.0279,VALID,119,VALID,1.33259,
2004-02-15, 01:04:00,VALID,917.557,VALID,0,VALID,90.434,VALID,-0.0509425,VALID,20.0182,VALID,88,VALID,1.04052,
2004-02-15, 01:05:00,VALID,917.528,VALID,0,VALID,90.5955,VALID,-0.0339617,VALID,19.9792,VALID,101,VALID,0.892933,
2004-02-15, 01:06:00,VALID,917.499,VALID,0,VALID,90.7379,VALID,0,VALID,19.9568,VALID,119,VALID,1.01563,
2004-02-15, 01:07:00,VALID,917.483,VALID,0,VALID,90.7086,VALID,0,VALID,19.9471,VALID,95,VALID,0.979421,
2004-02-15, 01:08:00,VALID,917.452,VALID,0,VALID,90.4759,VALID,0,VALID,19.9479,VALID,105,VALID,1.33557,
2004-02-15, 01:09:00,VALID,917.417,VALID,0,VALID,89.7066,VALID,-0.0169808,VALID,19.9834,VALID,73,VALID,1.60885,
2004-02-15, 01:10:00,VALID,917.401,VALID,0,VALID,89.4129,VALID,-0.0339617,VALID,20.0572,VALID,124,VALID,1.39608,
2004-02-15, 01:11:00,VALID,917.378,VALID,0,VALID,89.1929,VALID,0.0169808,VALID,20.0825,VALID,123,VALID,1.87827,
2004-02-15, 01:12:00,VALID,917.346,VALID,0,VALID,88.8737,VALID,-0.0169808,VALID,20.1315,VALID,135,VALID,1.80689,
2004-02-15, 01:13:00,VALID,917.324,VALID,0,VALID,88.5914,VALID,0,VALID,20.1794,VALID,99,VALID,1.44459,
2004-02-15, 01:14:00,VALID,917.311,VALID,0,VALID,88.0853,VALID,-0.0679233,VALID,20.245,VALID,123,VALID,1.82795,
2004-02-15, 01:15:00,VALID,917.31,VALID,0,VALID,88.084,VALID,-0.118866,VALID,20.2883,VALID,115,VALID,1.53073,
2004-02-15, 01:16:00,VALID,917.294,VALID,0,VALID,88.1756,VALID,-0.118866,VALID,20.2851,VALID,116,VALID,1.35324,
2004-02-15, 01:17:00,VALID,917.288,VALID,0,VALID,88.4592,VALID,-0.152827,VALID,20.2525,VALID,114,VALID,0.82649,
2004-02-15, 01:18:00,VALID,917.297,VALID,0,VALID,88.6296,VALID,-0.101885,VALID,20.1968,VALID,128,VALID,1.11846,
2004-02-15, 01:19:00,VALID,917.292,VALID,0,VALID,88.7758,VALID,-0.135847,VALID,20.1608,VALID,101,VALID,0.819754,
2004-02-15, 01:20:00,VALID,917.296,VALID,0,VALID,89.0772,VALID,-0.101885,VALID,20.1203,VALID,119,VALID,1.10528,
2004-02-15, 01:21:00,VALID,917.297,VALID,0,VALID,89.2984,VALID,-0.118866,VALID,20.0681,VALID,102,VALID,1.22135,
2004-02-15, 01:22:00,VALID,917.298,VALID,0,VALID,89.5502,VALID,-0.101885,VALID,20.0262,VALID,126,VALID,1.29616,
2004-02-15, 01:23:00,VALID,917.295,VALID,0,VALID,89.6926,VALID,-0.0679233,VALID,20.0003,VALID,116,VALID,1.04204,
2004-02-15, 01:24:00,VALID,917.302,VALID,0,VALID,90.0245,VALID,-0.0849042,VALID,19.9452,VALID,129,VALID,1.24491,
2004-02-15, 01:25:00,VALID,917.293,VALID,0,VALID,90.2966,VALID,-0.101885,VALID,19.9193,VALID,148,VALID,1.3529,
2004-02-15, 01:26:00,VALID,917.264,VALID,0,VALID,90.6883,VALID,-0.101885,VALID,19.8841,VALID,151,VALID,1.52717,
2004-02-15, 01:27:00,VALID,917.24,VALID,0,VALID,90.977,VALID,-0.101885,VALID,19.8391,VALID,127,VALID,1.18379,
2004-02-15, 01:28:00,VALID,917.227,VALID,0,VALID,91.3597,VALID,-0.101885,VALID,19.7877,VALID,143,VALID,1.4295,
2004-02-15, 01:29:00,VALID,917.219,VALID,0,VALID,91.9154,VALID,-0.101885,VALID,19.7062,VALID,138,VALID,1.46275,
2004-02-15, 01:30:00,VALID,917.221,VALID,0,VALID,92.3859,VALID,-0.0339617,VALID,19.6245,VALID,138,VALID,1.53594,
2004-02-15, 01:31:00,VALID,917.218,VALID,0,VALID,92.7038,VALID,-0.0339617,VALID,19.5763,VALID,135,VALID,1.39971,
2004-02-15, 01:32:00,VALID,917.206,VALID,0,VALID,92.8755,VALID,0,VALID,19.5373,VALID,136,VALID,1.34512,
2004-02-15, 01:33:00,VALID,917.196,VALID,0,VALID,92.9263,VALID,-0.0509425,VALID,19.5281,VALID,122,VALID,0.97532,
2004-02-15, 01:34:00,VALID,917.194,VALID,0,VALID,93.009,VALID,-0.0509425,VALID,19.4961,VALID,115,VALID,1.08173,
2004-02-15, 01:35:00,VALID,917.173,VALID,0,VALID,93.3294,VALID,-0.0339617,VALID,19.4476,VALID,114,VALID,0.924826,
2004-02-15, 01:36:00,VALID,917.168,VALID,0,VALID,93.4362,VALID,-0.0509425,VALID,19.3957,VALID,113,VALID,0.831641,
2004-02-15, 01:37:00,VALID,917.138,VALID,0,VALID,93.847,VALID,-0.0679233,VALID,19.3734,VALID,129,VALID,1.15552,
2004-02-15, 01:38:00,VALID,917.118,VALID,0,VALID,93.8228,VALID,-0.0849042,VALID,19.3604,VALID,130,VALID,0.454688,
2004-02-15, 01:39:00,VALID,917.091,VALID,0,VALID,93.6842,VALID,-0.0339617,VALID,19.3443,VALID,105,VALID,0.701265,
2004-02-15, 01:40:00,VALID,917.086,VALID,0,VALID,93.9105,VALID,-0.0339617,VALID,19.3344,VALID,100,VALID,0.825781,
2004-02-15, 01:41:00,VALID,917.07,VALID,0,VALID,94.0097,VALID,-0.0509425,VALID,19.3217,VALID,103,VALID,0.683008,
2004-02-15, 01:42:00,VALID,917.051,VALID,0,VALID,94.1089,VALID,-0.0339617,VALID,19.3219,VALID,88,VALID,0.813542,
2004-02-15, 01:43:00,VALID,917.044,VALID,0,VALID,94.1865,VALID,-0.0169808,VALID,19.3122,VALID,100,VALID,0.720703,
2004-02-15, 01:44:00,VALID,917.036,VALID,0,VALID,94.2755,VALID,0,VALID,19.3185,VALID,137,VALID,0.749273,
2004-02-15, 01:45:00,VALID,917.017,VALID,0,VALID,94.2729,VALID,-0.0509425,VALID,19.3152,VALID,134,VALID,0.631098,
2004-02-15, 01:46:00,VALID,917.019,VALID,0,VALID,94.2666,VALID,-0.0339617,VALID,19.3214,VALID,135,VALID,0.736151,
2004-02-15, 01:47:00,VALID,917.012,VALID,0,VALID,94.3505,VALID,-0.0509425,VALID,19.3281,VALID,141,VALID,0.873094,
2004-02-15, 01:48:00,VALID,917.019,VALID,0,VALID,94.1954,VALID,-0.0169808,VALID,19.3408,VALID,112,VALID,0.583807,
2004-02-15, 01:49:00,VALID,917.007,VALID,0,VALID,94.0746,VALID,-0.0169808,VALID,19.3344,VALID,134,VALID,0.872904,
2004-02-15, 01:50:00,VALID,917.002,VALID,0,VALID,94.1204,VALID,-0.0169808,VALID,19.3212,VALID,123,VALID,0.691211,
2004-02-15, 01:51:00,VALID,916.994,VALID,0,VALID,94.259,VALID,-0.0509425,VALID,19.3182,VALID,137,VALID,0.822222,
2004-02-15, 01:52:00,VALID,916.977,VALID,0,VALID,94.1051,VALID,-0.0509425,VALID,19.309,VALID,118,VALID,0.680035,
2004-02-15, 01:53:00,VALID,916.972,VALID,0,VALID,94.0415,VALID,-0.0169808,VALID,19.2733,VALID,120,VALID,0.690589,
2004-02-15, 01:54:00,VALID,916.961,VALID,0,VALID,94.1191,VALID,-0.0339617,VALID,19.231,VALID,83,VALID,0.77763,
2004-02-15, 01:55:00,VALID,916.943,VALID,0,VALID,94.676,VALID,-0.0169808,VALID,19.2025,VALID,101,VALID,0.895952,
2004-02-15, 01:56:00,VALID,916.936,VALID,0,VALID,94.8083,VALID,-0.0509425,VALID,19.1863,VALID,109,VALID,0.912157,
2004-02-15, 01:57:00,VALID,916.921,VALID,0,VALID,94.9266,VALID,-0.0339617,VALID,19.1536,VALID,126,VALID,0.927401,
2004-02-15, 01:58:00,VALID,916.902,VALID,0,VALID,95.0537,VALID,-0.0339617,VALID,19.1506,VALID,126,VALID,0.870617,
2004-02-15, 01:59:00,VALID,916.887,VALID,0,VALID,95.1504,VALID,0,VALID,19.1598,VALID,130,VALID,0.888393,
2004-02-15, 02:00:00,VALID,916.879,VALID,0,VALID,95.191,VALID,-0.0169808,VALID,19.1799,VALID,135,VALID,1.26478,
2004-02-15, 02:01:00,VALID,916.877,VALID,0,VALID,95.0524,VALID,-0.0169808,VALID,19.2027,VALID,123,VALID,0.978125,
2004-02-15, 02:02:00,VALID,916.862,VALID,0,VALID,94.8592,VALID,-0.0169808,VALID,19.2126,VALID,111,VALID,0.608613,
2004-02-15, 02:03:00,VALID,916.858,VALID,0,VALID,94.7701,VALID,-0.0679233,VALID,19.1958,VALID,111,VALID,1.06059,
2004-02-15, 02:04:00,VALID,916.851,VALID,0,VALID,94.8731,VALID,-0.0169808,VALID,19.1697,VALID,121,VALID,0.993555,
2004-02-15, 02:05:00,VALID,916.856,VALID,0,VALID,95.0461,VALID,-0.0169808,VALID,19.1739,VALID,122,VALID,1.15845,
2004-02-15, 02:06:00,VALID,916.836,VALID,0,VALID,95.2483,VALID,-0.0679233,VALID,19.1803,VALID,128,VALID,1.42416,
2004-02-15, 02:07:00,VALID,916.823,VALID,0,VALID,95.2419,VALID,-0.0509425,VALID,19.1958,VALID,126,VALID,1.94038,
2004-02-15, 02:08:00,VALID,916.798,VALID,0,VALID,94.8261,VALID,0,VALID,19.2184,VALID,120,VALID,1.28542,
2004-02-15, 02:09:00,VALID,916.78,VALID,0,VALID,94.821,VALID,-0.0339617,VALID,19.2221,VALID,102,VALID,1.16933,
2004-02-15, 02:10:00,VALID,916.756,VALID,0,VALID,94.9889,VALID,-0.0339617,VALID,19.2124,VALID,120,VALID,1.31176,
2004-02-15, 02:11:00,VALID,916.743,VALID,0,VALID,95.1198,VALID,-0.0509425,VALID,19.2151,VALID,122,VALID,1.40552,
2004-02-15, 02:12:00,VALID,916.746,VALID,0,VALID,95.1122,VALID,-0.0169808,VALID,19.2417,VALID,119,VALID,1.4881,
2004-02-15, 02:13:00,VALID,916.728,VALID,0,VALID,94.9049,VALID,-0.101885,VALID,19.2613,VALID,110,VALID,1.26036,
2004-02-15, 02:14:00,VALID,916.716,VALID,0,VALID,94.7511,VALID,-0.0509425,VALID,19.2574,VALID,117,VALID,1.08308,
2004-02-15, 02:15:00,VALID,916.708,VALID,0,VALID,94.9723,VALID,-0.0169808,VALID,19.2703,VALID,124,VALID,1.44212,
2004-02-15, 02:16:00,VALID,916.699,VALID,0,VALID,94.8655,VALID,0,VALID,19.3023,VALID,126,VALID,1.52912,
2004-02-15, 02:17:00,VALID,916.674,VALID,0,VALID,94.6036,VALID,-0.0169808,VALID,19.3222,VALID,128,VALID,1.05957,
2004-02-15, 02:18:00,VALID,916.661,VALID,0,VALID,94.7549,VALID,-0.0339617,VALID,19.3252,VALID,142,VALID,1.02939,
2004-02-15, 02:19:00,VALID,916.641,VALID,0,VALID,94.6875,VALID,-0.0169808,VALID,19.3286,VALID,130,VALID,1.12282,
2004-02-15, 02:20:00,VALID,916.628,VALID,0,VALID,94.6048,VALID,-0.0169808,VALID,19.3284,VALID,113,VALID,1.25621,
2004-02-15, 02:21:00,VALID,916.615,VALID,0,VALID,94.5832,VALID,0,VALID,19.3289,VALID,122,VALID,1.23196,
2004-02-15, 02:22:00,VALID,916.611,VALID,0,VALID,94.615,VALID,0.0169808,VALID,19.3118,VALID,114,VALID,0.990234,
2004-02-15, 02:23:00,VALID,916.606,VALID,0,VALID,94.5578,VALID,-0.0169808,VALID,19.3249,VALID,126,VALID,0.908798,
2004-02-15, 02:24:00,VALID,916.585,VALID,0,VALID,94.5171,VALID,-0.0169808,VALID,19.312,VALID,123,VALID,1.07083,
2004-02-15, 02:25:00,VALID,916.576,VALID,0,VALID,94.3111,VALID,-0.0339617,VALID,19.3058,VALID,108,VALID,1.13967,
2004-02-15, 02:26:00,VALID,916.55,VALID,0,VALID,94.5451,VALID,-0.0169808,VALID,19.2802,VALID,112,VALID,1.1617,
2004-02-15, 02:27:00,VALID,916.546,VALID,0,VALID,94.6824,VALID,-0.0679233,VALID,19.2641,VALID,99,VALID,1.16025,
2004-02-15, 02:28:00,VALID,916.538,VALID,0,VALID,94.7295,VALID,-0.0339617,VALID,19.2313,VALID,99,VALID,1.11646,
2004-02-15, 02:29:00,VALID,916.531,VALID,0,VALID,94.8655,VALID,0,VALID,19.2385,VALID,122,VALID,0.914463,
2004-02-15, 02:30:00,VALID,916.527,VALID,0,VALID,94.9825,VALID,-0.0339617,VALID,19.2223,VALID,125,VALID,1.27798,
2004-02-15, 02:31:00,VALID,916.516,VALID,0,VALID,94.8846,VALID,-0.0339617,VALID,19.2256,VALID,109,VALID,1.20293,
2004-02-15, 02:32:00,VALID,916.494,VALID,0,VALID,94.9736,VALID,-0.0169808,VALID,19.2156,VALID,118,VALID,1.37391,
2004-02-15, 02:33:00,VALID,916.491,VALID,0,VALID,94.9698,VALID,-0.0169808,VALID,19.238,VALID,132,VALID,1.49126,
2004-02-15, 02:34:00,VALID,916.476,VALID,0,VALID,94.6811,VALID,-0.0339617,VALID,19.2544,VALID,118,VALID,0.999238,
2004-02-15, 02:35:00,VALID,916.445,VALID,0,VALID,94.7765,VALID,-0.0509425,VALID,19.2606,VALID,143,VALID,1.04776,
2004-02-15, 02:36:00,VALID,916.422,VALID,0,VALID,94.849,VALID,-0.0169808,VALID,19.2514,VALID,136,VALID,1.41426,
2004-02-15, 02:37:00,VALID,916.404,VALID,0,VALID,94.7434,VALID,-0.0339617,VALID,19.2412,VALID,125,VALID,1.16741,
2004-02-15, 02:38:00,VALID,916.389,VALID,0,VALID,94.7562,VALID,0,VALID,19.2119,VALID,142,VALID,1.39311,
2004-02-15, 02:39:00,VALID,916.379,VALID,0,VALID,94.9329,VALID,0,VALID,19.1925,VALID,141,VALID,1.27271,
2004-02-15, 02:40:00,VALID,916.386,VALID,0,VALID,94.9545,VALID,-0.0339617,VALID,19.193,VALID,135,VALID,1.50345,
2004-02-15, 02:41:00,VALID,916.386,VALID,0,VALID,94.9571,VALID,-0.0339617,VALID,19.1928,VALID,151,VALID,1.1471,
2004-02-15, 02:42:00,VALID,916.392,VALID,0,VALID,94.9316,VALID,0,VALID,19.2055,VALID,168,VALID,1.33394,
2004-02-15, 02:43:00,VALID,916.398,VALID,0,VALID,94.8871,VALID,0,VALID,19.235,VALID,149,VALID,0.96234,
2004-02-15, 02:44:00,VALID,916.402,VALID,0,VALID,94.8922,VALID,0,VALID,19.2377,VALID,149,VALID,1.43064,
2004-02-15, 02:45:00,VALID,916.389,VALID,0,VALID,94.8375,VALID,-0.0169808,VALID,19.2571,VALID,142,VALID,1.51209,
2004-02-15, 02:46:00,VALID,916.386,VALID,0,VALID,94.7155,VALID,0,VALID,19.2703,VALID,132,VALID,1.24886,
2004-02-15, 02:47:00,VALID,916.381,VALID,0,VALID,94.5514,VALID,0,VALID,19.2772,VALID,121,VALID,1.55678,
2004-02-15, 02:48:00,VALID,916.369,VALID,0,VALID,94.4967,VALID,-0.0169808,VALID,19.241,VALID,115,VALID,1.39226,
2004-02-15, 02:49:00,VALID,916.347,VALID,0,VALID,94.5578,VALID,0,VALID,19.239,VALID,102,VALID,1.54557,
2004-02-15, 02:50:00,VALID,916.339,VALID,0,VALID,94.4993,VALID,-0.0339617,VALID,19.2253,VALID,89,VALID,1.14187,
2004-02-15, 02:51:00,VALID,916.343,VALID,0,VALID,94.4688,VALID,-0.0339617,VALID,19.2218,VALID,111,VALID,1.23084,
2004-02-15, 02:52:00,VALID,916.341,VALID,0,VALID,94.5171,VALID,-0.0339617,VALID,19.2348,VALID,100,VALID,1.26272,
2004-02-15, 02:53:00,VALID,916.326,VALID,0,VALID,94.3264,VALID,-0.0339617,VALID,19.2551,VALID,119,VALID,0.892187,
2004-02-15, 02:54:00,VALID,916.316,VALID,0,VALID,94.3798,VALID,-0.0679233,VALID,19.2611,VALID,129,VALID,1.29148,
2004-02-15, 02:55:00,VALID,916.306,VALID,0,VALID,94.2806,VALID,0,VALID,19.2869,VALID,132,VALID,1.55487,
2004-02-15, 02:56:00,VALID,916.287,VALID,0,VALID,94.2145,VALID,-0.0509425,VALID,19.2899,VALID,119,VALID,0.953311,
2004-02-15, 02:57:00,VALID,916.272,VALID,0,VALID,94.1089,VALID,-0.0509425,VALID,19.2934,VALID,114,VALID,0.969922,
2004-02-15, 02:58:00,VALID,916.258,VALID,0,VALID,94.2132,VALID,-0.0339617,VALID,19.277,VALID,128,VALID,0.896723,
2004-02-15, 02:59:00,VALID,916.247,VALID,0,VALID,94.465,VALID,0,VALID,19.2703,VALID,143,VALID,0.886523,
2004-02-15, 03:00:00,VALID,916.237,VALID,0,VALID,94.367,VALID,0,VALID,19.2641,VALID,131,VALID,0.684482,
2004-02-15, 03:01:00,VALID,916.217,VALID,0,VALID,94.1954,VALID,0,VALID,19.2387,VALID,88,VALID,0.465402,
2004-02-15, 03:02:00,VALID,916.207,VALID,0,VALID,94.4459,VALID,-0.0169808,VALID,19.2092,VALID,111,VALID,0.453125,
2004-02-15, 03:03:00,VALID,916.208,VALID,0,VALID,94.3378,VALID,-0.0169808,VALID,19.1707,VALID,78,VALID,0.798064,
2004-02-15, 03:04:00,VALID,916.195,VALID,0,VALID,94.6875,VALID,-0.0509425,VALID,19.1252,VALID,63,VALID,1.28764,
2004-02-15, 03:05:00,VALID,916.19,VALID,0,VALID,94.807,VALID,0,VALID,19.0828,VALID,76,VALID,0.723958,
2004-02-15, 03:06:00,VALID,916.209,VALID,0,VALID,95.1542,VALID,-0.0509425,VALID,19.0773,VALID,98,VALID,0.568714,
2004-02-15, 03:07:00,VALID,916.207,VALID,0,VALID,95.3258,VALID,-0.0509425,VALID,19.0579,VALID,121,VALID,0.764291,
2004-02-15, 03:08:00,VALID,916.215,VALID,0,VALID,95.205,VALID,-0.0169808,VALID,19.0447,VALID,131,VALID,0.725781,
2004-02-15, 03:09:00,VALID,916.217,VALID,0,VALID,95.1923,VALID,0,VALID,19.0095,VALID,132,VALID,0.782848,
2004-02-15, 03:10:00,VALID,916.211,VALID,0,VALID,95.4517,VALID,0,VALID,18.9866,VALID,109,VALID,0.745739,
2004-02-15, 03:11:00,VALID,916.188,VALID,0,VALID,95.5496,VALID,-0.0339617,VALID,18.961,VALID,138,VALID,0.841704,
2004-02-15, 03:12:00,VALID,916.188,VALID,0,VALID,95.8179,VALID,-0.0339617,VALID,18.9777,VALID,129,VALID,0.848011,
2004-02-15, 03:13:00,VALID,916.189,VALID,0,VALID,95.8357,VALID,-0.0509425,VALID,18.9707,VALID,125,VALID,0.972656,
2004-02-15, 03:14:00,VALID,916.189,VALID,0,VALID,95.4466,VALID,0,VALID,18.9481,VALID,96,VALID,0.378452,
2004-02-15, 03:15:00,VALID,916.186,VALID,0,VALID,95.5433,VALID,0,VALID,18.9156,VALID,111,VALID,0.510975,
2004-02-15, 03:16:00,VALID,916.196,VALID,0,VALID,95.982,VALID,0,VALID,18.9158,VALID,119,VALID,0.513445,
2004-02-15, 03:17:00,VALID,916.201,VALID,0,VALID,96.146,VALID,0,VALID,18.9221,VALID,130,VALID,0.537791,
2004-02-15, 03:18:00,VALID,916.189,VALID,0,VALID,96.118,VALID,0,VALID,18.9287,VALID,146,VALID,0.658727,
2004-02-15, 03:19:00,VALID,916.189,VALID,0,VALID,96.1346,VALID,0,VALID,18.9354,VALID,143,VALID,0.788517,
2004-02-15, 03:20:00,VALID,916.174,VALID,0,VALID,96.0316,VALID,-0.0169808,VALID,18.9449,VALID,126,VALID,0.899966,
2004-02-15, 03:21:00,VALID,916.167,VALID,0,VALID,95.8612,VALID,0,VALID,18.9608,VALID,138,VALID,1.01672,
2004-02-15, 03:22:00,VALID,916.17,VALID,0,VALID,95.7289,VALID,0,VALID,18.9516,VALID,147,VALID,0.969295,
2004-02-15, 03:23:00,VALID,916.189,VALID,0,VALID,95.8167,VALID,-0.0169808,VALID,18.9677,VALID,135,VALID,1.24006,
2004-02-15, 03:24:00,VALID,916.193,VALID,0,VALID,95.5878,VALID,-0.0169808,VALID,18.9488,VALID,137,VALID,0.740699,
2004-02-15, 03:25:00,VALID,916.179,VALID,0,VALID,95.9566,VALID,-0.0169808,VALID,18.9421,VALID,127,VALID,1.05033,
2004-02-15, 03:26:00,VALID,916.186,VALID,0,VALID,96.0011,VALID,0,VALID,18.9479,VALID,110,VALID,0.764027,
2004-02-15, 03:27:00,VALID,916.167,VALID,0,VALID,95.879,VALID,0,VALID,18.9317,VALID,108,VALID,0.635971,
2004-02-15, 03:28:00,VALID,916.153,VALID,0,VALID,95.8408,VALID,0,VALID,18.9096,VALID,113,VALID,0.57793,
2004-02-15, 03:29:00,VALID,916.159,VALID,0,VALID,95.9934,VALID,0,VALID,18.8962,VALID,135,VALID,0.510603,
2004-02-15, 03:30:00,VALID,916.156,VALID,0,VALID,95.7505,VALID,-0.0169808,VALID,18.8646,VALID,105,VALID,0.503815,
2004-02-15, 03:31:00,VALID,916.167,VALID,0,VALID,95.9108,VALID,0,VALID,18.8326,VALID,96,VALID,0.602412,
2004-02-15, 03:32:00,VALID,916.173,VALID,0,VALID,96.2592,VALID,-0.0339617,VALID,18.8289,VALID,95,VALID,0.703819,
2004-02-15, 03:33:00,VALID,916.185,VALID,0,VALID,96.0036,VALID,0,VALID,18.8125,VALID,94,VALID,0.479421,
2004-02-15, 03:34:00,VALID,916.205,VALID,0,VALID,95.9298,VALID,0,VALID,18.7936,VALID,82,VALID,0.370164,
2004-02-15, 03:35:00,VALID,916.211,VALID,0,VALID,96.2528,VALID,-0.0169808,VALID,18.7936,VALID,86,VALID,0.450868,
2004-02-15, 03:36:00,VALID,916.222,VALID,0,VALID,96.2643,VALID,0,VALID,18.8035,VALID,116,VALID,0.528088,